Simultaneous Nadir Overpasses (SNOs) Predictions

Prediction of SNOs between GOES-16 and AQUA Satellite Orbit:

Table of predicted SNOs for the next 14.0 days since TLE Epoch: 7/29/2023
Index Date Time (GOES-16) GOES-16 Lat,Lon AQUA Lat,Lon Distance(km) Time Diff (sec)
1 07/29/2023 07:08:09 -0.01, -75.21 0.73, -78.71 398.22 80
2 07/31/2023 06:53:51 -0.01, -75.21 -0.00, -75.22 1.52 80
3 08/02/2023 06:36:53 -0.01, -75.22 -0.76, -71.73 396.32 80
4 08/02/2023 18:57:43 0.01, -75.22 -0.34, -76.78 178.15 80
5 08/04/2023 18:46:05 0.00, -75.23 0.40, -73.29 220.91 80
6 08/05/2023 07:06:47 -0.01, -75.24 0.63, -78.31 348.44 80
7 08/07/2023 06:49:47 -0.00, -75.27 -0.08, -74.81 51.84 80
8 08/09/2023 06:35:27 0.00, -75.30 -0.82, -71.31 452.72 80
9 08/09/2023 18:56:18 -0.00, -75.30 -0.24, -76.36 120.97 80
10 08/11/2023 18:44:38 -0.01, -75.33 0.54, -72.87 280.83 80
